Weather History for Philip, SD

Change the Weather History Date:

Saturday, November 26, 2011

  Actual Average Record
Temperature  
Mean Temperature 33 °F 29 °F  
Max Temperature 45 °F 42 °F 69 °F (1998)
Min Temperature 20 °F 16 °F -8 °F (1976)
Degree Days  
Heating Degree Days 32 36  
Month to date heating degree days 777 780  
Since 1 July heating degree days 1320 1483  
Cooling Degree Days 0 0  
Month to date cooling degree days 0 0  
Year to date cooling degree days 837 818  
Moisture  
Dew Point 13 °F    
Average Humidity 44    
Maximum Humidity 67    
Minimum Humidity 20    
Precipitation  
Precipitation 0.00 in 0.02 in 0.58 in (1978)
Month to date precipitation 0.42 0.57  
Year to date precipitation 15.77 16.87  
Sea Level Pressure  
Sea Level Pressure 30.36 in    
Wind  
Wind Speed 23 mph (NW)    
Max Wind Speed 44 mph    
Max Gust Speed 56 mph    
Visibility 10 miles    
Events      
T = Trace of Precipitation, MM = Missing Value Source: NWS Daily Summary

Daily Weather History Graph

Daily Weather History Graph

Search for Another Location

Airport:

Trip Planner

Search our weather history database for the weather conditions in past years. The results will help you decide how hot, cold, wet, or windy it might be!

Date:

Astronomy

Nov. 26, 2011 Rise Set
Actual Time 6:55 AM MST 4:11 PM MST
Civil Twilight 6:23 AM MST 4:43 PM MST
Nautical Twilight 5:47 AM MST 5:19 PM MST
Astronomical Twilight 5:12 AM MST 5:54 PM MST
Moon 8:30 AM MST (11/26) 5:43 PM MST (11/26)
Length of Visible Light 10h 20m
Length of Day
9h 16m
Waxing Crescent, 3% of the Moon is Illuminated
Nov 26
Waxing Crescent
Dec 2
First Quarter
Dec 10
Full
Dec 17
Last Quarter
Dec 24
New

Hourly Weather History & Observations

Time (MST) Temp. Windchill Dew Point Humidity Pressure Visibility Wind Dir Wind Speed Gust Speed Precip Events Conditions
12:55 AM 43.0 °F 32.7 °F 23.0 °F 45% 30.02 in 10.0 mi NW 28.8 mph 34.5 mph N/A   Mostly Cloudy
1:55 AM 42.1 °F 32.6 °F 21.0 °F 43% 30.06 in 10.0 mi NW 23.0 mph 35.7 mph N/A   Mostly Cloudy
2:55 AM 39.0 °F 27.0 °F 23.0 °F 53% 30.10 in 10.0 mi NW 31.1 mph 43.7 mph N/A   Clear
3:55 AM 37.0 °F 24.9 °F 24.1 °F 59% 30.17 in 10.0 mi NW 27.6 mph 41.4 mph N/A   Clear
4:55 AM 36.0 °F 22.6 °F 24.1 °F 62% 30.25 in 10.0 mi NW 32.2 mph 42.6 mph N/A   Clear
5:55 AM 35.1 °F 22.7 °F 23.0 °F 61% 30.30 in 10.0 mi NW 25.3 mph 39.1 mph N/A   Clear
6:55 AM 35.1 °F 21.6 °F 19.0 °F 52% 30.33 in 10.0 mi NW 31.1 mph 38.0 mph N/A   Clear
7:55 AM 36.0 °F 24.2 °F 12.9 °F 39% 30.38 in 10.0 mi NW 24.2 mph 33.4 mph N/A   Clear
8:55 AM 37.9 °F 24.7 °F 10.9 °F 33% 30.38 in 10.0 mi NW 35.7 mph 47.2 mph N/A   Clear
9:55 AM 39.0 °F 26.1 °F 10.0 °F 30% 30.38 in 10.0 mi NNW 36.8 mph 50.6 mph N/A   Clear
10:55 AM 39.9 °F 27.3 °F 10.0 °F 29% 30.38 in 10.0 mi NNW 36.8 mph 51.8 mph N/A   Clear
11:55 AM 41.0 °F 29.7 °F 6.1 °F 24% 30.36 in 10.0 mi NNW 31.1 mph 43.7 mph N/A   Clear
12:55 PM 42.1 °F 29.8 °F 5.0 °F 22% 30.35 in 10.0 mi NNW 40.3 mph 56.4 mph N/A   Clear
1:55 PM 43.0 °F 31.5 °F 5.0 °F 21% 30.37 in 10.0 mi NW 36.8 mph 47.2 mph N/A   Clear
2:55 PM 42.1 °F 32.1 °F 5.0 °F 22% 30.40 in 10.0 mi NW 25.3 mph 39.1 mph N/A   Clear
3:55 PM 39.9 °F 30.8 °F 7.0 °F 26% 30.43 in 10.0 mi NW 18.4 mph 28.8 mph N/A   Clear
4:55 PM 35.1 °F 28.6 °F 9.0 °F 34% 30.48 in 10.0 mi WNW 8.1 mph - N/A   Clear
5:55 PM 34.0 °F 26.0 °F 9.0 °F 35% 30.49 in 10.0 mi NW 10.4 mph - N/A   Clear
6:55 PM 30.9 °F 23.5 °F 9.0 °F 40% 30.49 in 10.0 mi WNW 8.1 mph - N/A   Clear
7:55 PM 33.1 °F 24.4 °F 10.0 °F 38% 30.50 in 10.0 mi WSW 11.5 mph - N/A   Clear
8:55 PM 25.0 °F 14.8 °F 10.9 °F 55% 30.51 in 10.0 mi West 10.4 mph - N/A   Clear
9:55 PM 33.1 °F 26.9 °F 10.0 °F 38% 30.49 in 10.0 mi WSW 6.9 mph - N/A   Clear
10:55 PM 19.9 °F - 10.0 °F 65% 30.48 in 10.0 mi Calm Calm - N/A   Clear
11:55 PM 27.0 °F 17.3 °F 10.0 °F 49% 30.45 in 10.0 mi WSW 10.4 mph - N/A   Clear